QPF
0.00 0.00 0.00 0.00 0.00 0.00 0.01 0.01 0.01 0.01 0.00 0.00 0.00 0.00 0.00 0.00 0.00 0.00 0.00 0.00 0.00 0.00 0.00 0.00 0.00 0.00 0.00 0.00 0.00 0.00 0.01 0.01 0.02 0.02 0.02 0.03 0.04 0.03 0.02 0.02 0.01 0.02 0.02 0.02
0.00 0.00 0.00 0.00 0.00 0.00 0.01 0.01 0.01 0.01 0.00 0.00 0.00 0.00 0.00 0.00 0.00 0.00 0.00 0.00 0.00 0.00 0.00 0.00 0.00 0.00 0.00 0.00 0.00 0.00 0.00 0.01 0.01 0.02 0.02 0.03 0.04 0.03 0.03 0.02 0.04 0.03 0.02 0.02
0.00 0.00 0.00 0.00 0.00 0.00 0.00 0.00 0.01 0.01 0.00 0.00 0.00 0.00 0.00 0.00 0.00 0.00 0.00 0.00 0.00 0.00 0.00 0.00 0.00 0.00 0.00 0.00 0.00 0.00 0.01 0.02 0.02 0.03 0.03 0.03 0.04 0.04 0.04 0.05 0.06 0.04 0.02 0.02
0.00 0.00 0.00 0.00 0.00 0.00 0.00 0.00 0.01 0.02 0.01 0.01 0.00 0.00 0.00 0.00 0.00 0.00 0.00 0.00 0.00 0.00 0.00 0.00 0.00 0.00 0.00 0.00 0.00 0.01 0.01 0.02 0.03 0.03 0.03 0.03 0.03 0.04 0.06 0.05 0.05 0.04 0.02 0.02
0.00 0.00 0.00 0.00 0.00 0.00 0.00 0.01 0.00 0.01 0.02 0.01 0.00 0.00 0.00 0.00 0.00 0.00 0.00 0.00 0.00 0.00 0.00 0.00 0.00 0.00 0.00 0.01 0.01 0.01 0.02 0.02 0.03 0.03 0.03 0.03 0.03 0.04 0.03 0.03 0.05 0.06 0.05 0.04
0.00 0.00 0.00 0.00 0.00 0.01 0.01 0.00 0.00 0.01 0.01 0.01 0.01 0.00 0.00 0.00 0.01 0.01 0.01 0.00 0.00 0.00 0.01 0.00 0.00 0.00 0.00 0.00 0.01 0.01 0.02 0.02 0.03 0.02 0.01 0.01 0.02 0.04 0.03 0.03 0.04 0.05 0.05 0.05
0.00 0.00 0.00 0.00 0.00 0.00 0.00 0.00 0.00 0.00 0.01 0.01 0.01 0.01 0.00 0.00 0.01 0.03 0.03 0.01 0.00 0.01 0.02 0.00 0.00 0.00 0.00 0.00 0.01 0.01 0.01 0.01 0.01 0.01 0.00 0.01 0.02 0.03 0.02 0.02 0.03 0.04 0.04 0.04
0.00 0.00 0.00 0.00 0.00 0.00 0.00 0.00 0.01 0.00 0.01 0.01 0.01 0.00 0.00 0.00 0.00 0.00 0.01 0.01 0.00 0.01 0.01 0.01 0.00 0.00 0.00 0.00 0.01 0.02 0.01 0.01 0.01 0.01 0.01 0.01 0.02 0.02 0.01 0.03 0.02 0.03 0.03 0.02
0.00 0.00 0.00 0.00 0.00 0.00 0.00 0.00 0.00 0.00 0.01 0.01 0.01 0.00 0.01 0.01 0.01 0.00 0.00 0.00 0.00 0.00 0.01 0.01 0.00 0.00 0.01 0.01 0.01 0.01 0.01 0.01 0.02 0.01 0.01 0.01 0.02 0.02 0.02 0.03 0.02 0.02 0.04 0.03
0.00 0.00 0.00 0.00 0.00 0.00 0.00 0.00 0.00 0.00 0.00 0.01 0.01 0.01 0.01 0.02 0.02 0.01 0.00 0.00 0.00 0.00 0.00 0.01 0.01 0.01 0.02 0.01 0.01 0.01 0.01 0.01 0.01 0.01 0.01 0.01 0.02 0.02 0.02 0.03 0.03 0.03 0.04 0.05
0.00 0.00 0.00 0.00 0.00 0.00 0.01 0.00 0.00 0.00 0.00 0.00 0.00 0.01 0.04 0.06 0.05 0.03 0.01 0.01 0.01 0.01 0.01 0.00 0.00 0.00 0.01 0.01 0.01 0.00 0.00 0.00 0.01 0.01 0.01 0.02 0.02 0.02 0.03 0.04 0.05 0.05 0.05 0.05
0.00 0.00 0.00 0.00 0.00 0.00 0.01 0.01 0.00 0.00 0.00 0.00 0.01 0.02 0.03 0.03 0.02 0.01 0.01 0.01 0.01 0.01 0.01 0.01 0.00 0.01 0.01 0.01 0.01 0.01 0.00 0.01 0.01 0.01 0.02 0.03 0.04 0.04 0.03 0.03 0.04 0.05 0.04 0.04
0.00 0.00 0.00 0.00 0.01 0.00 0.00 0.00 0.00 0.00 0.00 0.00 0.00 0.02 0.01 0.01 0.01 0.01 0.01 0.01 0.01 0.01 0.01 0.01 0.01 0.01 0.01 0.01 0.00 0.00 0.01 0.01 0.01 0.01 0.02 0.04 0.05 0.05 0.05 0.05 0.05 0.04 0.04 0.04
0.00 0.00 0.00 0.00 0.01 0.01 0.00 0.00 0.00 0.00 0.00 0.00 0.01 0.01 0.01 0.01 0.02 0.02 0.02 0.01 0.01 0.01 0.01 0.02 0.02 0.01 0.01 0.01 0.01 0.00 0.00 0.00 0.01 0.02 0.04 0.06 0.07 0.07 0.07 0.07 0.05 0.05 0.06 0.06
0.00 0.00 0.00 0.00 0.00 0.00 0.00 0.00 0.00 0.00 0.01 0.01 0.01 0.01 0.02 0.02 0.02 0.02 0.01 0.01 0.01 0.01 0.01 0.01 0.01 0.01 0.01 0.01 0.01 0.01 0.01 0.01 0.01 0.02 0.04 0.05 0.05 0.05 0.05 0.04 0.04 0.03 0.03 0.03
0.00 0.00 0.00 0.00 0.00 0.00 0.00 0.00 0.00 0.00 0.00 0.01 0.01 0.01 0.04 0.05 0.05 0.05 0.03 0.01 0.01 0.01 0.01 0.01 0.01 0.02 0.03 0.03 0.03 0.03 0.02 0.02 0.02 0.02 0.02 0.03 0.03 0.03 0.03 0.03 0.02 0.03 0.03 0.03
0.00 0.00 0.00 0.00 0.00 0.00 0.00 0.00 0.00 0.00 0.00 0.00 0.01 0.02 0.06 0.09 0.05 0.04 0.02 0.01 0.01 0.01 0.01 0.01 0.01 0.03 0.04 0.05 0.05 0.05 0.04 0.03 0.03 0.03 0.03 0.03 0.04 0.04 0.04 0.03 0.02 0.02 0.03 0.03
0.00 0.00 0.00 0.00 0.00 0.00 0.00 0.00 0.01 0.02 0.01 0.01 0.02 0.04 0.04 0.03 0.02 0.02 0.01 0.01 0.02 0.01 0.01 0.01 0.01 0.04 0.06 0.06 0.06 0.06 0.06 0.06 0.06 0.06 0.06 0.06 0.06 0.06 0.06 0.06 0.05 0.04 0.04 0.04
0.00 0.00 0.00 0.00 0.00 0.00 0.00 0.00 0.01 0.03 0.02 0.01 0.06 0.07 0.03 0.03 0.03 0.03 0.03 0.04 0.02 0.01 0.01 0.01 0.02 0.03 0.05 0.05 0.04 0.04 0.04 0.05 0.05 0.04 0.05 0.06 0.06 0.07 0.08 0.08 0.07 0.06 0.05 0.05
0.00 0.01 0.01 0.01 0.01 0.01 0.01 0.00 0.00 0.01 0.02 0.01 0.03 0.05 0.03 0.03 0.06 0.05 0.02 0.02 0.02 0.02 0.02 0.02 0.03 0.04 0.04 0.04 0.04 0.04 0.04 0.05 0.05 0.06 0.06 0.06 0.07 0.08 0.11 0.12 0.13 0.12 0.10 0.08
0.01 0.01 0.01 0.01 0.01 0.01 0.00 0.00 0.00 0.02 0.03 0.02 0.01 0.02 0.02 0.03 0.05 0.04 0.03 0.03 0.03 0.03 0.03 0.04 0.04 0.05 0.06 0.06 0.06 0.06 0.06 0.07 0.08 0.08 0.07 0.07 0.07 0.08 0.10 0.13 0.15 0.18 0.16 0.13
0.01 0.01 0.02 0.02 0.02 0.02 0.01 0.01 0.01 0.02 0.01 0.02 0.01 0.03 0.03 0.04 0.06 0.06 0.05 0.03 0.03 0.03 0.04 0.04 0.05 0.05 0.06 0.07 0.08 0.11 0.12 0.11 0.11 0.12 0.09 0.06 0.06 0.08 0.08 0.08 0.10 0.10 0.10 0.10
0.02 0.02 0.02 0.02 0.02 0.02 0.01 0.01 0.02 0.01 0.01 0.02 0.03 0.07 0.05 0.04 0.07 0.08 0.08 0.04 0.03 0.02 0.02 0.04 0.05 0.05 0.08 0.08 0.08 0.11 0.13 0.14 0.11 0.09 0.09 0.09 0.09 0.07 0.08 0.07 0.06 0.05 0.04 0.04
0.02 0.01 0.01 0.01 0.02 0.03 0.02 0.01 0.01 0.01 0.01 0.02 0.02 0.04 0.03 0.04 0.05 0.10 0.12 0.08 0.04 0.02 0.02 0.02 0.03 0.03 0.05 0.07 0.09 0.13 0.10 0.09 0.10 0.08 0.06 0.07 0.08 0.10 0.10 0.08 0.05 0.04 0.03 0.02
0.01 0.00 0.01 0.02 0.02 0.03 0.03 0.02 0.02 0.02 0.02 0.02 0.02 0.02 0.03 0.03 0.04 0.05 0.08 0.07 0.04 0.02 0.02 0.02 0.01 0.01 0.02 0.03 0.04 0.08 0.07 0.06 0.07 0.08 0.06 0.05 0.05 0.05 0.06 0.07 0.07 0.05 0.04 0.04
0.00 0.01 0.02 0.02 0.02 0.02 0.02 0.01 0.02 0.02 0.02 0.02 0.02 0.02 0.03 0.03 0.03 0.04 0.04 0.05 0.04 0.03 0.02 0.02 0.02 0.01 0.02 0.02 0.02 0.03 0.05 0.06 0.07 0.08 0.08 0.06 0.04 0.04 0.04 0.04 0.03 0.03 0.03 0.03
MSLP
1003.75 1004.22 1004.53 1004.69 1004.72 1004.65 1004.50 1004.29 1004.01 1003.66 1003.22 1002.70 1002.12 1001.53 1000.97 1000.52 1000.23 1000.14 1000.25 1000.53 1000.96 1001.45 1001.97 1002.46 1002.90 1003.29 1003.65 1004.01 1004.39 1004.81 1005.28 1005.77 1006.28 1006.76 1007.20 1007.57 1007.89 1008.16 1008.40 1008.63 1008.88 1009.14 1009.43 1009.74
1003.91 1004.22 1004.40 1004.48 1004.49 1004.48 1004.46 1004.41 1004.32 1004.12 1003.80 1003.31 1002.68 1001.95 1001.18 1000.48 999.92 999.59 999.50 999.66 1000.04 1000.56 1001.17 1001.78 1002.36 1002.89 1003.36 1003.80 1004.24 1004.69 1005.17 1005.67 1006.18 1006.66 1007.10 1007.48 1007.79 1008.04 1008.27 1008.48 1008.70 1008.95 1009.24 1009.56
1003.89 1004.04 1004.08 1004.09 1004.11 1004.18 1004.31 1004.45 1004.56 1004.56 1004.36 1003.94 1003.27 1002.41 1001.43 1000.47 999.62 999.01 998.69 998.68 998.96 999.47 1000.12 1000.83 1001.54 1002.20 1002.81 1003.37 1003.90 1004.43 1004.97 1005.52 1006.06 1006.57 1007.02 1007.40 1007.70 1007.94 1008.13 1008.32 1008.52 1008.76 1009.05 1009.39
1003.79 1003.78 1003.72 1003.68 1003.72 1003.88 1004.16 1004.51 1004.83 1005.02 1004.97 1004.61 1003.93 1002.96 1001.79 1000.57 999.44 998.54 997.95 997.72 997.85 998.27 998.91 999.67 1000.46 1001.24 1001.98 1002.66 1003.32 1003.96 1004.59 1005.22 1005.84 1006.40 1006.89 1007.29 1007.59 1007.82 1007.99 1008.14 1008.32 1008.55 1008.84 1009.20
1003.74 1003.61 1003.46 1003.38 1003.45 1003.70 1004.13 1004.65 1005.17 1005.53 1005.63 1005.35 1004.67 1003.63 1002.31 1000.87 999.48 998.30 997.44 996.96 996.88 997.16 997.71 998.44 999.26 1000.09 1000.91 1001.71 1002.48 1003.24 1003.99 1004.74 1005.45 1006.10 1006.66 1007.11 1007.44 1007.67 1007.82 1007.95 1008.10 1008.31 1008.60 1008.97
1003.86 1003.64 1003.43 1003.33 1003.42 1003.74 1004.27 1004.93 1005.60 1006.11 1006.33 1006.14 1005.50 1004.43 1003.03 1001.43 999.84 998.42 997.31 996.59 996.28 996.35 996.74 997.35 998.10 998.91 999.75 1000.59 1001.44 1002.30 1003.17 1004.04 1004.88 1005.64 1006.30 1006.83 1007.21 1007.46 1007.61 1007.73 1007.85 1008.03 1008.30 1008.67
1004.23 1003.96 1003.71 1003.58 1003.67 1004.01 1004.59 1005.33 1006.10 1006.72 1007.04 1006.95 1006.38 1005.35 1003.93 1002.28 1000.58 999.00 997.69 996.74 996.19 996.03 996.19 996.61 997.20 997.89 998.65 999.47 1000.33 1001.24 1002.20 1003.17 1004.13 1005.03 1005.80 1006.43 1006.89 1007.19 1007.36 1007.46 1007.56 1007.72 1007.96 1008.31
1004.87 1004.56 1004.27 1004.11 1004.16 1004.48 1005.05 1005.80 1006.60 1007.29 1007.70 1007.72 1007.26 1006.33 1005.00 1003.39 1001.69 1000.05 998.62 997.50 996.73 996.32 996.22 996.37 996.72 997.20 997.79 998.49 999.28 1000.18 1001.16 1002.21 1003.27 1004.28 1005.17 1005.91 1006.46 1006.82 1007.03 1007.15 1007.24 1007.36 1007.57 1007.88
1005.71 1005.38 1005.04 1004.83 1004.81 1005.06 1005.57 1006.28 1007.06 1007.77 1008.26 1008.38 1008.08 1007.32 1006.16 1004.70 1003.10 1001.51 1000.05 998.82 997.88 997.23 996.85 996.71 996.75 996.95 997.29 997.78 998.43 999.23 1000.18 1001.24 1002.35 1003.44 1004.43 1005.27 1005.92 1006.36 1006.63 1006.77 1006.86 1006.96 1007.13 1007.41
1006.63 1006.28 1005.91 1005.62 1005.53 1005.68 1006.08 1006.70 1007.43 1008.14 1008.68 1008.93 1008.80 1008.26 1007.34 1006.11 1004.71 1003.25 1001.85 1000.59 999.53 998.68 998.04 997.58 997.30 997.17 997.21 997.44 997.86 998.50 999.34 1000.34 1001.44 1002.56 1003.62 1004.54 1005.27 1005.79 1006.11 1006.30 1006.40 1006.50 1006.66 1006.91
1007.48 1007.12 1006.72 1006.39 1006.21 1006.25 1006.55 1007.07 1007.73 1008.42 1009.00 1009.36 1009.41 1009.11 1008.47 1007.52 1006.36 1005.10 1003.82 1002.59 1001.47 1000.47 999.60 998.87 998.27 997.82 997.54 997.47 997.63 998.05 998.72 999.59 1000.62 1001.71 1002.77 1003.72 1004.51 1005.09 1005.48 1005.71 1005.86 1005.98 1006.13 1006.37
1008.14 1007.80 1007.41 1007.05 1006.83 1006.80 1007.00 1007.44 1008.03 1008.69 1009.30 1009.76 1009.98 1009.90 1009.51 1008.83 1007.93 1006.88 1005.75 1004.59 1003.45 1002.35 1001.31 1000.36 999.49 998.75 998.18 997.82 997.72 997.89 998.34 999.04 999.93 1000.92 1001.92 1002.85 1003.65 1004.28 1004.72 1005.01 1005.21 1005.37 1005.55 1005.80
1008.58 1008.29 1007.95 1007.62 1007.39 1007.34 1007.50 1007.88 1008.42 1009.06 1009.68 1010.21 1010.54 1010.63 1010.45 1010.00 1009.32 1008.45 1007.46 1006.38 1005.25 1004.10 1002.96 1001.84 1000.78 999.83 999.02 998.42 998.06 997.99 998.22 998.71 999.40 1000.24 1001.13 1001.99 1002.75 1003.38 1003.85 1004.20 1004.46 1004.68 1004.92 1005.20
1008.81 1008.62 1008.36 1008.12 1007.97 1007.96 1008.13 1008.49 1009.00 1009.61 1010.23 1010.78 1011.17 1011.35 1011.30 1010.99 1010.45 1009.71 1008.82 1007.81 1006.72 1005.56 1004.36 1003.16 1002.00 1000.91 999.95 999.17 998.62 998.34 998.34 998.61 999.09 999.73 1000.45 1001.18 1001.86 1002.45 1002.94 1003.32 1003.64 1003.94 1004.24 1004.59
1008.90 1008.84 1008.73 1008.64 1008.61 1008.70 1008.93 1009.32 1009.82 1010.40 1010.99 1011.50 1011.88 1012.08 1012.05 1011.79 1011.31 1010.63 1009.80 1008.84 1007.77 1006.63 1005.44 1004.24 1003.04 1001.91 1000.88 1000.01 999.34 998.89 998.70 998.75 999.01 999.43 999.95 1000.52 1001.08 1001.61 1002.07 1002.47 1002.84 1003.20 1003.57 1003.98
1008.95 1009.04 1009.11 1009.20 1009.34 1009.57 1009.90 1010.34 1010.84 1011.39 1011.91 1012.35 1012.65 1012.77 1012.69 1012.39 1011.90 1011.22 1010.40 1009.46 1008.43 1007.33 1006.19 1005.04 1003.90 1002.80 1001.79 1000.90 1000.17 999.62 999.28 999.15 999.20 999.39 999.71 1000.09 1000.51 1000.94 1001.35 1001.75 1002.15 1002.55 1002.98 1003.44
1009.03 1009.27 1009.53 1009.82 1010.14 1010.52 1010.96 1011.44 1011.95 1012.44 1012.88 1013.20 1013.38 1013.38 1013.19 1012.80 1012.23 1011.52 1010.68 1009.75 1008.76 1007.73 1006.68 1005.63 1004.59 1003.59 1002.66 1001.82 1001.09 1000.49 1000.06 999.78 999.64 999.65 999.77 999.97 1000.24 1000.56 1000.91 1001.28 1001.68 1002.10 1002.56 1003.04
1009.16 1009.55 1009.97 1010.43 1010.91 1011.42 1011.94 1012.46 1012.95 1013.37 1013.70 1013.90 1013.93 1013.79 1013.47 1012.97 1012.33 1011.57 1010.72 1009.81 1008.88 1007.93 1006.99 1006.07 1005.17 1004.31 1003.49 1002.74 1002.06 1001.47 1000.98 1000.61 1000.35 1000.20 1000.15 1000.20 1000.34 1000.55 1000.82 1001.16 1001.53 1001.96 1002.41 1002.88
1009.34 1009.83 1010.36 1010.94 1011.53 1012.12 1012.68 1013.20 1013.64 1013.99 1014.20 1014.27 1014.17 1013.91 1013.48 1012.91 1012.21 1011.43 1010.60 1009.74 1008.88 1008.03 1007.22 1006.44 1005.69 1004.97 1004.29 1003.64 1003.04 1002.48 1001.99 1001.57 1001.23 1000.98 1000.82 1000.76 1000.80 1000.93 1001.14 1001.43 1001.77 1002.16 1002.58 1003.02
1009.52 1010.04 1010.62 1011.25 1011.88 1012.48 1013.04 1013.52 1013.90 1014.15 1014.26 1014.22 1014.03 1013.68 1013.20 1012.60 1011.91 1011.16 1010.39 1009.61 1008.85 1008.13 1007.44 1006.80 1006.19 1005.60 1005.04 1004.49 1003.97 1003.47 1003.00 1002.57 1002.20 1001.91 1001.70 1001.58 1001.56 1001.64 1001.81 1002.06 1002.37 1002.72 1003.08 1003.45
1009.62 1010.12 1010.69 1011.30 1011.90 1012.47 1012.97 1013.38 1013.67 1013.84 1013.86 1013.75 1013.50 1013.13 1012.66 1012.09 1011.47 1010.82 1010.15 1009.49 1008.86 1008.26 1007.69 1007.17 1006.67 1006.18 1005.71 1005.25 1004.79 1004.35 1003.92 1003.52 1003.17 1002.88 1002.67 1002.55 1002.52 1002.59 1002.74 1002.97 1003.24 1003.55 1003.85 1004.14
1009.61 1010.05 1010.56 1011.09 1011.62 1012.11 1012.52 1012.84 1013.04 1013.13 1013.09 1012.95 1012.70 1012.36 1011.95 1011.48 1010.98 1010.46 1009.93 1009.42 1008.92 1008.44 1007.99 1007.55 1007.12 1006.71 1006.29 1005.88 1005.47 1005.07 1004.68 1004.33 1004.02 1003.78 1003.61 1003.52 1003.53 1003.62 1003.78 1004.00 1004.26 1004.52 1004.77 1004.99
1009.48 1009.85 1010.26 1010.70 1011.13 1011.52 1011.84 1012.06 1012.19 1012.21 1012.15 1012.00 1011.78 1011.51 1011.20 1010.87 1010.51 1010.15 1009.79 1009.42 1009.06 1008.69 1008.32 1007.94 1007.56 1007.17 1006.78 1006.38 1006.00 1005.62 1005.28 1004.97 1004.72 1004.54 1004.43 1004.40 1004.46 1004.59 1004.79 1005.02 1005.27 1005.50 1005.70 1005.85
1009.28 1009.56 1009.89 1010.24 1010.58 1010.88 1011.12 1011.27 1011.34 1011.33 1011.25 1011.12 1010.96 1010.77 1010.58 1010.38 1010.18 1009.98 1009.76 1009.53 1009.28 1008.99 1008.68 1008.34 1007.97 1007.58 1007.18 1006.78 1006.40 1006.04 1005.72 1005.45 1005.25 1005.12 1005.08 1005.11 1005.22 1005.40 1005.63 1005.87 1006.12 1006.34 1006.51 1006.61
1009.04 1009.26 1009.53 1009.83 1010.11 1010.36 1010.55 1010.66 1010.70 1010.68 1010.62 1010.52 1010.41 1010.30 1010.20 1010.12 1010.05 1009.97 1009.87 1009.74 1009.57 1009.35 1009.08 1008.75 1008.38 1007.97 1007.56 1007.14 1006.74 1006.37 1006.06 1005.82 1005.65 1005.56 1005.56 1005.64 1005.78 1005.99 1006.23 1006.48 1006.73 1006.93 1007.08 1007.16
1008.81 1009.02 1009.28 1009.56 1009.84 1010.08 1010.26 1010.38 1010.43 1010.42 1010.37 1010.30 1010.24 1010.18 1010.15 1010.14 1010.15 1010.14 1010.12 1010.06 1009.94 1009.76 1009.50 1009.18 1008.80 1008.39 1007.95 1007.51 1007.09 1006.72 1006.40 1006.16 1006.00 1005.92 1005.92 1006.00 1006.15 1006.35 1006.58 1006.83 1007.05 1007.25 1007.39 1007.46
Thickness
5846 5834 5828 5839 5850 5850 5848 5844 5841 5852 5871 5867 5862 5863 5867 5873 5870 5863 5858 5855 5850 5848 5849 5847 5842 5837 5830 5823 5817 5812 5808 5804 5800 5795 5791 5787 5785 5786 5785 5784 5782 5780 5778 5777
5832 5829 5847 5858 5858 5853 5846 5838 5839 5853 5868 5866 5862 5864 5874 5875 5871 5870 5865 5859 5856 5852 5850 5846 5843 5839 5833 5826 5820 5815 5811 5807 5803 5799 5796 5793 5790 5789 5788 5788 5785 5782 5780 5778
5825 5842 5859 5853 5849 5844 5842 5840 5839 5840 5854 5863 5858 5851 5863 5875 5880 5878 5874 5870 5864 5858 5852 5847 5843 5840 5836 5829 5824 5820 5814 5810 5806 5803 5799 5796 5793 5790 5788 5786 5785 5784 5782 5781
5835 5852 5851 5844 5842 5843 5832 5852 5848 5838 5830 5830 5845 5823 5849 5866 5867 5869 5871 5869 5867 5864 5859 5852 5847 5843 5840 5835 5830 5824 5818 5813 5809 5806 5801 5795 5790 5786 5787 5788 5787 5786 5784 5782
5830 5844 5841 5835 5843 5847 5844 5856 5847 5839 5830 5824 5835 5825 5839 5861 5853 5859 5867 5869 5870 5866 5862 5856 5852 5848 5846 5841 5835 5828 5821 5816 5812 5808 5804 5799 5795 5793 5793 5791 5789 5787 5786 5784
5836 5852 5851 5847 5854 5854 5853 5848 5840 5836 5827 5804 5825 5824 5827 5851 5854 5857 5863 5867 5871 5870 5863 5861 5857 5852 5847 5845 5838 5831 5822 5816 5813 5809 5806 5801 5798 5795 5792 5790 5788 5786 5786 5784
5818 5835 5849 5853 5837 5844 5842 5823 5803 5795 5796 5803 5835 5827 5831 5858 5869 5868 5865 5867 5870 5870 5863 5859 5856 5850 5846 5843 5838 5832 5824 5817 5814 5810 5807 5804 5800 5797 5793 5791 5789 5786 5786 5784
5800 5807 5835 5842 5834 5826 5831 5825 5797 5782 5788 5808 5827 5820 5838 5866 5873 5875 5872 5869 5868 5867 5865 5861 5858 5853 5848 5844 5839 5833 5825 5819 5815 5811 5807 5805 5802 5799 5796 5793 5792 5789 5787 5787
5800 5805 5838 5844 5845 5835 5820 5821 5832 5812 5805 5798 5814 5827 5844 5858 5857 5862 5865 5866 5864 5863 5864 5862 5859 5854 5849 5844 5839 5835 5827 5820 5816 5812 5808 5805 5802 5799 5797 5795 5793 5791 5789 5788
5807 5795 5820 5837 5839 5837 5831 5827 5818 5803 5781 5777 5799 5815 5816 5832 5841 5848 5851 5853 5854 5855 5856 5858 5856 5852 5849 5845 5840 5836 5829 5822 5817 5813 5808 5805 5802 5799 5797 5794 5791 5789 5788 5787
5807 5789 5801 5816 5812 5810 5815 5813 5809 5806 5803 5783 5778 5797 5834 5830 5833 5835 5839 5845 5847 5848 5849 5849 5850 5851 5847 5843 5838 5832 5826 5821 5816 5812 5808 5804 5800 5798 5794 5791 5789 5788 5786 5784
5797 5789 5782 5800 5824 5830 5818 5811 5808 5788 5786 5792 5783 5793 5837 5834 5834 5832 5834 5836 5839 5842 5843 5843 5843 5844 5841 5837 5833 5827 5823 5818 5813 5810 5805 5801 5798 5794 5791 5788 5787 5786 5783 5782
5778 5770 5760 5774 5794 5809 5807 5810 5811 5806 5796 5787 5779 5786 5824 5824 5824 5824 5826 5827 5830 5833 5833 5834 5833 5832 5832 5829 5826 5822 5818 5814 5810 5805 5800 5795 5793 5790 5787 5785 5784 5783 5780 5777
5770 5761 5756 5754 5771 5788 5789 5797 5804 5797 5784 5780 5783 5789 5801 5804 5804 5808 5812 5815 5818 5820 5821 5822 5820 5821 5821 5820 5817 5814 5810 5808 5805 5800 5794 5789 5786 5785 5783 5781 5780 5778 5776 5773
5764 5751 5758 5768 5780 5785 5786 5790 5795 5790 5787 5778 5781 5786 5791 5795 5794 5797 5800 5802 5803 5805 5808 5809 5808 5807 5807 5806 5806 5804 5802 5799 5797 5792 5787 5783 5781 5779 5777 5775 5774 5772 5771 5770
5753 5742 5745 5749 5767 5774 5774 5781 5786 5786 5786 5782 5782 5781 5792 5793 5791 5786 5786 5787 5788 5791 5795 5796 5797 5796 5795 5794 5794 5793 5792 5791 5788 5783 5779 5778 5775 5772 5770 5769 5768 5766 5765 5764
5737 5731 5725 5729 5749 5755 5750 5770 5774 5776 5782 5778 5769 5773 5782 5776 5775 5776 5777 5779 5778 5780 5783 5784 5784 5784 5784 5785 5785 5783 5782 5781 5777 5775 5772 5770 5768 5765 5763 5763 5760 5759 5757 5756
5726 5719 5719 5721 5725 5713 5750 5780 5778 5770 5771 5775 5771 5772 5772 5770 5772 5774 5774 5772 5771 5771 5772 5774 5775 5776 5776 5776 5775 5774 5773 5770 5768 5766 5763 5762 5759 5757 5756 5754 5752 5751 5750 5748
5731 5717 5709 5709 5709 5721 5748 5764 5764 5756 5753 5766 5762 5763 5765 5767 5764 5762 5767 5767 5764 5764 5764 5766 5768 5768 5767 5766 5765 5763 5761 5759 5758 5756 5754 5753 5751 5749 5747 5745 5744 5743 5742 5740
5726 5717 5703 5701 5695 5700 5728 5753 5761 5751 5735 5752 5754 5750 5753 5752 5739 5742 5753 5756 5756 5756 5757 5757 5759 5758 5755 5755 5755 5752 5750 5748 5747 5747 5746 5745 5743 5741 5739 5737 5736 5735 5734 5732
5701 5699 5694 5692 5691 5707 5730 5743 5744 5716 5716 5736 5741 5740 5741 5738 5736 5740 5744 5744 5744 5744 5746 5747 5746 5744 5743 5744 5743 5740 5739 5738 5739 5739 5737 5735 5734 5732 5731 5730 5728 5725 5724 5724
5693 5690 5687 5687 5682 5690 5720 5724 5714 5712 5726 5729 5730 5732 5731 5731 5733 5732 5731 5731 5731 5732 5733 5734 5733 5731 5733 5733 5731 5729 5727 5728 5728 5727 5724 5724 5724 5724 5724 5721 5719 5718 5717 5715
5691 5691 5690 5688 5688 5701 5709 5709 5713 5717 5716 5719 5721 5724 5723 5721 5720 5720 5719 5719 5719 5721 5723 5724 5723 5721 5721 5722 5720 5717 5718 5718 5717 5714 5714 5715 5715 5715 5714 5712 5710 5709 5708 5707
5686 5692 5685 5680 5688 5695 5702 5705 5706 5708 5708 5712 5715 5715 5714 5711 5711 5710 5708 5708 5710 5712 5713 5714 5712 5710 5709 5710 5710 5709 5710 5710 5708 5704 5705 5705 5704 5705 5705 5703 5702 5701 5701 5699
5669 5672 5670 5669 5679 5684 5690 5692 5696 5699 5701 5703 5705 5705 5704 5703 5701 5701 5699 5699 5700 5701 5703 5703 5701 5699 5698 5699 5700 5701 5701 5701 5699 5698 5697 5697 5697 5698 5696 5696 5695 5694 5693 5692
5663 5660 5657 5659 5669 5669 5674 5683 5687 5686 5689 5692 5692 5692 5694 5695 5693 5692 5691 5691 5692 5691 5692 5692 5691 5690 5690 5690 5691 5692 5693 5692 5689 5687 5688 5689 5691 5691 5689 5688 5687 5686 5685 5684